Location: Somersville
(37.9569°N, 121.8644°W)
Time: 06:21:16
(UTC+00:00)

Daily predictions for brighter satellites

Satellite Brightness Start Highest point End
(mag) Time Altitude Azimuth Time Altitude Azimuth Time Altitude Azimuth
Cosmos 1697 Rocket 2.8 12:31:20 70° E 12:31:20 70° E 12:36:35 10° SSE
Meteor 2-12 Rocket 4.3 12:35:40 10° S 12:41:48 87° E 12:47:55 10° N
USA 238 DEB 3.9 12:41:43 58° NW 12:43:26 76° WSW 12:51:35 10° SSE
USA 238 3.9 12:41:46 57° NW 12:43:33 77° WSW 12:51:42 10° SSE
Cosmos 468 Rocket 4.3 12:41:19 10° S 12:46:31 66° ESE 12:51:43 10° NNE
Atlas Centaur 2 4.3 12:51:29 21° SW 12:52:27 22° SSW 12:58:17 10° SSE
Cosmos 1536 Rocket 3.9 12:52:59 10° S 12:57:22 64° E 13:01:45 10° NNE
Cosmos 2082 Rocket 2.3 12:56:23 10° SSW 13:01:59 72° ESE 13:07:35 10° NNE
FengYun 1-2 T 4.1 12:59:52 10° N 13:05:32 76° WNW 13:11:10 10° SSW
H-2A R/B 4.3 13:04:50 11° S 13:05:52 12° S 13:08:13 10° SSE
SKYMED 2 4.2 13:05:16 10° SSE 13:09:29 54° ENE 13:12:57 15° N
Cosmos 1634 Rocket 4.1 13:10:36 45° WNW 13:11:17 47° W 13:17:09 10° SSW
Cosmos 2098 Rocket 3.6 13:09:11 12° N 13:14:28 83° W 13:20:16 10° S
SL-8 R/B 4.0 13:17:15 43° NNW 13:18:35 60° NNE 13:23:17 10° ESE
Tiangong -1.1 13:21:09 39° NNE 13:21:09 39° NNE 13:23:46 10° ENE
SL-24 R/B 4.5 13:16:57 10° NNE 13:22:29 86° ESE 13:27:15 10° SSW
Cosmos 990 Rocket 4.0 13:24:30 33° NW 13:26:39 59° WSW 13:31:45 10° S
Cosmos 2369 4.4 13:24:13 10° NNW 13:29:48 54° ENE 13:35:19 10° SE
SL-24 R/B - RUBIN 2 3.8 13:28:17 26° NNW 13:30:39 66° ENE 13:35:00 10° SE
Cosmos 1980 Rocket 2.1 13:27:36 20° NNW 13:31:33 80° WSW 13:37:06 10° SSE
Cosmos 2279 Rocket 4.2 13:26:12 10° NNW 13:32:04 48° W 13:38:00 10° SSW
Cosmos 1346 Rocket 2.5 13:29:22 10° S 13:33:02 88° W 13:36:45 10° N
Cosmos 2180 Rocket 4.5 13:33:36 10° NNW 13:39:45 61° W 13:45:57 10° S
COSMO-SKYMED 1 2.4 13:37:03 10° SSE 13:41:09 83° ENE 13:45:17 10° N
CZ-3C R/B 4.0 13:37:49 10° SSW 13:41:56 20° SE 13:53:43 10° ESE
Cosmos 1606 Rocket 3.5 13:40:04 10° N 13:44:32 87° E 13:48:56 10° S
Cosmos 2333 Rocket 4.3 13:42:12 10° N 13:46:40 23° NE 13:51:07 10° ESE
Cosmos 967 Rocket 4.5 13:41:17 15° NNW 13:46:49 78° WSW 13:53:16 10° SSE
BREEZE-M DEB (TANK) 3.5 13:51:52 22° NNW 13:52:07 22° NNW 13:55:05 10° NE
BREEZE M DEB (TANK) 1.9 13:55:43 11° SW 13:57:42 53° SE 14:00:35 10° ENE
Cosmos 1484 Rocket 2.3 13:54:24 10° N 13:57:50 85° WNW 14:01:12 10° SSW
USA 59 Rocket 0.7 13:55:28 12° NNW 13:58:57 52° ENE 14:04:02 10° SE
Cosmos 841 Rocket 3.6 13:56:18 10° SW 14:01:22 53° WNW 14:06:30 10° N
Cosmos 2026 Rocket 3.9 13:55:48 10° S 14:01:51 86° W 14:07:57 10° N
Cosmos 2360 Rocket 4.4 13:59:35 10° N 14:03:42 20° NE 14:07:48 10° ESE
Meteor 2-3 Rocket 3.7 13:59:02 10° SSW 14:04:46 68° W 14:10:28 10° N
Cosmos 1933 3.7 14:05:11 10° NNW 14:08:43 37° W 14:12:14 10° SSW
Cosmos 220 Rocket 4.1 14:05:44 10° SW 14:09:34 43° WNW 14:13:29 10° N
IRS-1D 4.4 14:06:42 10° NNW 14:10:45 25° WNW 14:14:50 10° WSW
COSMOS 2455 2.8 14:05:11 10° NNW 14:11:15 85° WSW 14:17:15 10° SSE
Cosmos 1726 Rocket 3.5 14:08:26 10° NNW 14:12:46 61° W 14:16:55 10° S
Cosmos 1697 Rocket 4.3 14:13:07 13° W 14:14:10 13° W 14:16:45 10° SW
CZ-2D R/B 4.5 14:13:35 10° NNE 14:16:34 37° E 14:19:31 10° SSE
Delta 2 Rocket 3.1 14:14:20 14° W 14:16:47 49° S 14:19:40 10° ESE
NOSS 2-1 (C) 3.8 14:14:45 10° NNW 14:18:30 69° ENE 14:23:41 10° SE
Cosmos 1898 Rocket 3.6 14:15:32 10° NNW 14:20:39 56° WSW 14:25:46 10° S
Cosmos 1092 Rocket 4.0 14:15:30 10° SSW 14:21:46 69° W 14:28:02 10° N
Cosmos 1626 Rocket 4.5 14:18:11 10° S 14:22:29 53° E 14:26:48 10° NNE
Cosmos 1892 Rocket 3.9 14:19:27 10° SSW 14:23:33 41° W 14:27:42 10° N
Cosmos 2322 Rocket 3.8 14:18:56 10° N 14:24:02 33° ENE 14:29:05 10° ESE
Cosmos 405 Rocket 3.9 14:21:06 10° SSE 14:24:07 37° E 14:27:11 10° NNE
COSMOS 2406 3.5 14:21:41 10° SW 14:27:02 42° WNW 14:32:25 10° N
SMAP 3.2 14:22:50 10° NNE 14:27:31 81° ESE 14:32:10 10° S
Cosmos 2237 4.2 14:22:04 10° NNW 14:27:45 72° WSW 14:33:24 10° SSE
Helios 1A Rocket 3.8 14:27:22 10° SSW 14:29:55 20° W 14:32:28 10° NW
Landsat 7 4.1 14:29:42 10° NNE 14:34:22 75° ESE 14:39:00 10° S
IRIDIUM 104 4.4 14:32:15 10° S 14:37:27 90° NNE 14:42:42 10° N
CZ-3 R/B 4.0 14:43:44 10° W 14:50:47 16° SW 14:54:58 10° SSW
